Location: Blue Mountain Vista Observatory
(40.6992°N, 75.9422°W)
Time: 18:01:53
(UTC-05:00)

Amateur Radio Satellites - All Passes

Search period start: 28 February 2015 17:31
Search period end: 01 March 2015 17:31
Location: Blue Mountain Vista Observatory, 40.6992°N, 75.9422°W

Satellite Date Start Highest point End Downlink Frequencies (MHz)
Time Altitude Azimuth
M-CUBED/EXP-1 PRIME 28 Feb 17:33:19 17:36:55 28° 294° (WNW) 17:40:41 437.505
AUBIESAT-1 28 Feb 17:37:23 17:41:00 29° 294° (WNW) 17:44:47 437.475
Cubesat XI-IV 28 Feb 17:39:46 17:45:09 81° 257° (WSW) 17:50:34 437.490
CUTE-I 28 Feb 17:49:33 17:54:53 67° 258° (WSW) 18:00:16 437.470
STRAND 1 28 Feb 17:58:40 18:02:04 18° 91° (E) 18:05:38 437.568
BEESAT 3 28 Feb 18:05:07 18:09:12 69° 303° (WNW) 18:13:21 437.485
AIST 2 28 Feb 18:11:58 18:16:00 45° 117° (ESE) 18:20:07 435.215
O/OREOS (USA 219) 28 Feb 18:18:42 18:21:28 16° 53° (NE) 18:24:23 437.305
BEESAT 2 28 Feb 18:28:06 18:32:05 46° 307° (NW) 18:36:07 435.950
AIST 1 28 Feb 18:36:30 18:40:57 86° 263° (W) 18:45:21
MOZHAYETS 4 28 Feb 18:38:27 18:39:13 10° 298° (WNW) 18:39:42
YUBILEINY 28 Feb 18:44:50 18:50:14 16° 302° (WNW) 18:55:09 435.215
CUBESAT XI-V 28 Feb 18:50:03 18:54:48 82° 285° (WNW) 18:59:30 437.345
PHONESAT 2.4 28 Feb 18:53:58 18:57:10 29° 155° (SSE) 19:00:24 2401.200-2431.200
PRISM 28 Feb 18:58:35 19:02:46 59° 286° (WNW) 19:06:55 437.425
CANX-2 28 Feb 19:03:01 19:05:51 18° 67° (ENE) 19:08:47 2200.000
SEEDS 28 Feb 19:04:19 19:06:28 14° 66° (ENE) 19:08:49 437.485
VERMONT LUNAR 28 Feb 19:06:44 19:10:10 54° 164° (SSE) 19:13:35 437.305
BRITE-PL 28 Feb 19:10:28 19:15:44 41° 71° (ENE) 19:20:53 437.365/2234.400
CUTE 1.7 + AOD 2 28 Feb 19:21:16 19:24:43 26° 70° (ENE) 19:28:15 437.475
HO-68 28 Feb 19:22:23 19:29:10 50° 67° (ENE) 19:36:02 435.675
GOMX 1 28 Feb 19:27:36 19:32:36 40° 72° (ENE) 19:37:29 467.674
STRAND 1 28 Feb 19:36:38 19:41:39 53° 288° (WNW) 19:46:38 437.568
CUBEBUG 2 28 Feb 19:42:27 19:43:15 11° 64° (ENE) 19:44:19 437.445
Oscar 11 28 Feb 19:50:02 19:52:42 17° 66° (ENE) 19:55:30 145.826/435.025
AIST 2 28 Feb 19:51:32 19:54:51 21° 315° (NW) 19:58:07 435.215
O/OREOS (USA 219) 28 Feb 19:56:50 20:01:22 58° 252° (WSW) 20:05:50 437.305
DELFI C3 28 Feb 20:01:13 20:03:37 16° 67° (ENE) 20:06:10 145.870
DX 1 28 Feb 20:10:34 20:12:57 15° 65° (ENE) 20:15:31 434.975-435.025
PCSat 28 Feb 20:11:45 20:16:10 27° 109° (ESE) 20:20:43 145.827
AAUSAT CUBESAT 2 28 Feb 20:13:09 20:17:13 59° 75° (ENE) 20:21:19 437.432
DOVE 4 28 Feb 20:13:16 20:18:30 76° 75° (ENE) 20:23:29 437.250
COMPASS 1 28 Feb 20:13:49 20:17:56 70° 76° (ENE) 20:22:05 437.405
FUNcube-1 28 Feb 20:29:12 20:32:31 22° 69° (ENE) 20:35:53 145.935
ZACube-1 28 Feb 20:29:31 20:32:54 22° 69° (ENE) 20:36:18 437.345
PHONESAT 2.4 28 Feb 20:31:46 20:35:25 78° 171° (S) 20:39:03 2401.200-2431.200
CANX-2 28 Feb 20:37:36 20:41:33 38° 263° (W) 20:45:29 2200.000
SEEDS 28 Feb 20:37:53 20:41:57 49° 261° (W) 20:46:02 437.485
CINEMA 3 28 Feb 20:38:43 20:43:34 76° 76° (ENE) 20:48:14 145.822/145.860
UKube-1 28 Feb 20:41:33 20:45:18 29° 69° (ENE) 20:49:06 .
UWE-3 28 Feb 20:42:40 20:46:48 38° 72° (ENE) 20:50:51 435.000/436.395/437.385
VERMONT LUNAR 28 Feb 20:44:32 20:48:02 90° 181° (S) 20:51:32 437.305
BRITE-PL 28 Feb 20:49:28 20:54:20 28° 267° (W) 20:58:59 437.365/2234.400
HUMSAT D 28 Feb 20:51:14 20:54:14 20° 68° (ENE) 20:57:19 437.325/437.525
GONETS M04 28 Feb 20:56:47 21:03:50 30° 85° (E) 21:11:07
CUTE 1.7 + AOD 2 28 Feb 20:57:03 21:00:37 26° 266° (W) 21:04:08 437.475
GOMX 1 28 Feb 21:06:16 21:10:50 26° 267° (W) 21:15:09 467.674
HO-68 28 Feb 21:10:56 21:17:11 31° 266° (W) 21:23:19 435.675
50 SAT 28 Feb 21:11:50 21:14:54 22° 69° (ENE) 21:18:03 437.505
CUBEBUG 2 28 Feb 21:14:53 21:19:28 80° 257° (WSW) 21:23:55 437.445
Oscar 11 28 Feb 21:24:27 21:28:34 44° 261° (W) 21:32:43 145.826/435.025
DELFI C3 28 Feb 21:34:45 21:38:33 40° 262° (W) 21:42:23 145.870
AISAT 28 Feb 21:37:20 21:41:41 50° 72° (ENE) 21:46:04 437.250
DX 1 28 Feb 21:44:31 21:48:49 53° 260° (W) 21:53:09 434.975-435.025
VELOX 1 28 Feb 21:47:52 21:52:17 63° 74° (ENE) 21:56:46 145.980
CUBEBUG 1 28 Feb 21:49:21 21:53:06 28° 69° (ENE) 21:56:56 437.445
AAUSAT CUBESAT 2 28 Feb 21:52:14 21:53:21 11° 272° (W) 21:54:12 437.432
PCSat 28 Feb 21:54:16 21:59:25 43° 306° (NW) 22:04:35 145.827
DOVE 4 28 Feb 21:54:32 21:56:48 12° 272° (W) 21:58:45 437.250
ESTCUBE 1 28 Feb 21:55:19 21:59:24 35° 71° (ENE) 22:03:35 437.505/2401.250
POLYITAN 1 28 Feb 22:00:27 22:02:21 13° 89° (E) 22:04:27 437.675
POPSAT HIP 1 28 Feb 22:02:03 22:04:03 13° 90° (E) 22:06:15 437.405
FUNcube-1 28 Feb 22:04:43 22:08:44 33° 264° (W) 22:12:37 145.935
ZACube-1 28 Feb 22:05:09 22:09:09 32° 264° (W) 22:13:02 437.345
PHONESAT 2.4 28 Feb 22:10:15 22:13:53 81° 189° (S) 22:17:31 2401.200-2431.200
UNISAT 6 28 Feb 22:10:29 22:14:18 31° 96° (E) 22:18:11 437.425
UKube-1 28 Feb 22:17:51 22:21:27 25° 265° (W) 22:25:01 .
CINEMA 3 28 Feb 22:19:54 22:21:19 11° 272° (W) 22:22:25 145.822/145.860
UWE-3 28 Feb 22:20:12 22:23:29 19° 267° (W) 22:26:37 435.000/436.395/437.385
VERMONT LUNAR 28 Feb 22:22:30 22:25:54 53° 197° (SSW) 22:29:18 437.305
NANOSAT C BR1 28 Feb 22:24:59 22:28:25 24° 94° (E) 22:31:56 145.865
HUMSAT D 28 Feb 22:25:58 22:29:50 34° 263° (W) 22:33:39 437.325/437.525
SPROUT 28 Feb 22:31:03 22:34:08 20° 67° (ENE) 22:37:20 437.525
TIGRISAT 28 Feb 22:36:24 22:40:38 60° 101° (E) 22:44:53 435.000
DANDE 28 Feb 22:38:31 22:39:44 11° 89° (E) 22:41:22 436.750
TISAT 1 28 Feb 22:42:32 22:45:55 24° 69° (ENE) 22:49:24 437.305
50 SAT 28 Feb 22:46:23 22:49:49 27° 264° (W) 22:53:13 437.505
ANTELSAT 28 Feb 22:48:43 22:53:01 86° 103° (ESE) 22:57:21 437.575/2403.000
GONETS M04 28 Feb 22:51:43 23:00:14 58° 283° (WNW) 23:08:47
RS-15 28 Feb 22:54:25 23:04:35 49° 112° (ESE) 23:14:58 29.354- 29.394
QB50P1 28 Feb 22:56:42 23:00:54 57° 100° (E) 23:05:02 145.935-145.965
QB50P2 28 Feb 22:59:44 23:03:57 64° 101° (E) 23:08:08 145.880/145.840
AISAT 28 Feb 23:15:54 23:18:38 15° 270° (W) 23:21:12 437.250
DUCHIFAT 1 28 Feb 23:16:48 23:21:03 84° 284° (WNW) 23:25:14 145.980
CUSAT 1 28 Feb 23:16:55 23:22:26 29° 95° (E) 23:26:59 437.405
BUGSAT 1 28 Feb 23:18:38 23:22:50 76° 102° (ESE) 23:26:56 437.445
CUBEBUG 1 28 Feb 23:25:40 23:29:27 27° 265° (W) 23:33:13 437.445
VELOX 1 28 Feb 23:27:33 23:29:23 12° 272° (W) 23:30:57 145.980
ITUPSAT 1 28 Feb 23:31:41 23:34:07 14° 63° (ENE) 23:36:46 437.325
ESTCUBE 1 28 Feb 23:32:54 23:36:25 21° 267° (W) 23:39:51 437.505/2401.250
POLYITAN 1 28 Feb 23:34:33 23:38:41 51° 286° (WNW) 23:42:45 437.675
POPSAT HIP 1 28 Feb 23:36:13 23:40:20 49° 287° (WNW) 23:44:23 437.405
UNISAT 6 28 Feb 23:47:37 23:50:59 22° 292° (WNW) 23:54:17 437.425
PHONESAT 2.4 28 Feb 23:48:52 23:52:09 33° 204° (SSW) 23:55:25 2401.200-2431.200
NANOSAT C BR1 01 Mar 00:00:41 00:04:17 27° 290° (WNW) 00:07:49 145.865
VERMONT LUNAR 01 Mar 00:01:18 00:03:24 15° 212° (SSW) 00:05:27 437.305
SPROUT 01 Mar 00:05:58 00:10:00 37° 263° (W) 00:14:03 437.525
TIGRISAT 01 Mar 00:15:05 00:16:58 12° 296° (WNW) 00:18:41 435.000
DANDE 01 Mar 00:15:40 00:22:57 78° 99° (E) 00:28:28 436.750
TISAT 1 01 Mar 00:17:51 00:21:38 29° 264° (W) 00:25:23 437.305
SWISSCUBE 01 Mar 00:31:45 00:36:27 61° 74° (ENE) 00:41:12 437.505
QB50P1 01 Mar 00:34:20 00:36:21 13° 295° (WNW) 00:38:11 145.935-145.965
QB50P2 01 Mar 00:37:44 00:39:24 12° 296° (WNW) 00:40:50 145.880/145.840
BEESAT 01 Mar 00:40:45 00:45:30 70° 74° (ENE) 00:50:16 436.000
GONETS M04 01 Mar 00:58:05 00:59:37 10° 308° (NW) 01:00:26
CUSAT 1 01 Mar 00:59:12 01:05:17 38° 283° (WNW) 01:09:59 437.405
RS-15 01 Mar 01:06:26 01:17:00 51° 314° (NW) 01:27:42 29.354- 29.394
ITUPSAT 1 01 Mar 01:06:47 01:11:32 66° 258° (WSW) 01:16:20 437.325
ITAMSAT 1 01 Mar 01:08:16 01:10:25 13° 88° (E) 01:12:52 435.822/435.867
BEESAT 2 01 Mar 01:11:21 01:13:16 13° 39° (NE) 01:15:19 435.950
Oscar 19 01 Mar 01:12:30 01:17:23 44° 98° (E) 01:22:17 437.125/150
KKS-1 01 Mar 01:26:14 01:30:23 39° 71° (ENE) 01:34:34 437.445
STARS 01 Mar 01:37:35 01:41:33 33° 70° (ENE) 01:45:34 437.465
SO-50 01 Mar 01:44:41 01:49:04 48° 117° (ESE) 01:53:39 436.795
DANDE 01 Mar 02:02:28 02:06:32 16° 290° (WNW) 02:09:48 436.750
Gurwin Techsat 1B 01 Mar 02:05:54 02:10:45 36° 96° (E) 02:15:38 435.225
SWISSCUBE 01 Mar 02:12:17 02:14:50 14° 271° (W) 02:17:07 437.505
BEESAT 01 Mar 02:22:01 02:23:56 12° 272° (W) 02:25:34 436.000
BEESAT 3 01 Mar 02:24:40 02:28:48 65° 56° (NE) 02:32:51 437.485
AIST 2 01 Mar 02:34:14 02:38:00 29° 48° (NE) 02:41:44 435.215
ITAMSAT 1 01 Mar 02:45:22 02:50:36 75° 286° (WNW) 02:55:48 435.822/435.867
BEESAT 2 01 Mar 02:47:54 02:52:05 84° 240° (WSW) 02:56:11 435.950
M-CUBED/EXP-1 PRIME 01 Mar 02:48:20 02:51:08 27° 66° (ENE) 02:54:04 437.505
AUBIESAT-1 01 Mar 02:52:01 02:54:49 26° 65° (ENE) 02:57:44 437.475
Oscar 19 01 Mar 02:52:31 02:56:30 23° 294° (WNW) 03:00:22 437.125/150
YUBILEINY 01 Mar 02:53:34 03:02:06 51° 75° (ENE) 03:10:39 435.215
KKS-1 01 Mar 03:03:56 03:07:13 19° 268° (W) 03:10:23 437.445
STARS 01 Mar 03:14:36 03:18:07 22° 266° (W) 03:21:32 437.465
HORYU 2 01 Mar 03:20:04 03:24:23 50° 100° (E) 03:28:43 437.375
JAS-2 01 Mar 03:23:11 03:29:02 25° 91° (E) 03:35:22 435.910
RS-15 01 Mar 03:24:53 03:32:58 22° 346° (NNW) 03:41:04 29.354- 29.394
SO-50 01 Mar 03:26:09 03:29:55 23° 317° (NW) 03:33:42 436.795
AO-7 01 Mar 03:33:51 03:41:23 39° 97° (E) 03:49:00 29.400- 29.500
Gurwin Techsat 1B 01 Mar 03:46:04 03:50:39 29° 293° (WNW) 03:55:07 435.225
MOZHAYETS 4 01 Mar 03:59:28 04:04:01 79° 76° (ENE) 04:08:37
BEESAT 3 01 Mar 04:05:02 04:06:24 11° 251° (WSW) 04:07:34 437.485
AIST 2 01 Mar 04:12:52 04:16:34 28° 246° (WSW) 04:20:09 435.215
CUBESAT XI-V 01 Mar 04:20:06 04:20:49 10° 62° (ENE) 04:21:48 437.345
M-CUBED/EXP-1 PRIME 01 Mar 04:24:14 04:26:15 15° 263° (W) 04:28:10 437.505
AUBIESAT-1 01 Mar 04:27:47 04:29:52 15° 263° (W) 04:31:51 437.475
YUBILEINY 01 Mar 04:50:54 04:58:42 35° 274° (W) 05:06:17 435.215
HORYU 2 01 Mar 04:57:55 05:00:42 16° 295° (WNW) 05:03:20 437.375
PCSat 01 Mar 04:59:25 05:03:41 23° 46° (NE) 05:08:03 145.827
JAS-2 01 Mar 05:07:14 05:14:32 67° 287° (WNW) 05:22:16 435.910
STRAND 1 01 Mar 05:14:06 05:18:16 27° 67° (ENE) 05:22:34 437.568
AO-7 01 Mar 05:26:29 05:34:22 48° 296° (WNW) 05:42:08 29.400- 29.500
RS-15 01 Mar 05:42:08 05:50:42 24° 21° (NNE) 05:59:46 29.354- 29.394
PRISM 01 Mar 05:48:28 05:52:36 85° 257° (WSW) 05:56:48 437.425
CUBESAT XI-V 01 Mar 05:52:56 05:57:37 88° 258° (WSW) 06:02:22 437.345
Cubesat XI-IV 01 Mar 05:57:37 06:02:41 42° 98° (E) 06:07:45 437.490
CUTE-I 01 Mar 06:07:04 06:12:17 51° 99° (E) 06:17:29 437.470
PCSat 01 Mar 06:42:12 06:47:31 56° 246° (WSW) 06:52:47 145.827
STRAND 1 01 Mar 06:52:34 06:57:20 37° 263° (W) 07:02:06 437.568
JAS-2 01 Mar 06:54:56 06:58:35 14° 303° (WNW) 07:01:54 435.910
AIST 1 01 Mar 07:05:32 07:09:46 56° 95° (E) 07:14:05
GONETS M04 01 Mar 07:07:53 07:11:49 14° 56° (NE) 07:16:21
AO-7 01 Mar 07:23:32 07:25:19 11° 316° (NW) 07:26:36 29.400- 29.500
Cubesat XI-IV 01 Mar 07:38:11 07:42:35 26° 294° (WNW) 07:46:52 437.490
CUTE-I 01 Mar 07:47:59 07:52:03 22° 296° (WNW) 07:55:57 437.470
RS-15 01 Mar 07:54:54 08:06:09 62° 50° (NE) 08:17:58 29.354- 29.394
COMPASS 1 01 Mar 08:00:00 08:01:23 12° 88° (E) 08:03:01 437.405
DOVE 4 01 Mar 08:14:29 08:17:21 18° 91° (E) 08:20:18 437.250
SEEDS 01 Mar 08:22:58 08:26:32 26° 95° (E) 08:30:10 437.485
CANX-2 01 Mar 08:23:10 08:27:03 35° 97° (E) 08:30:59 2200.000
O/OREOS (USA 219) 01 Mar 08:31:11 08:33:59 17° 101° (E) 08:36:57 437.305
CINEMA 3 01 Mar 08:35:36 08:38:07 16° 91° (E) 08:40:46 145.822/145.860
HO-68 01 Mar 08:37:33 08:44:33 53° 100° (E) 08:51:34 435.675
CUTE 1.7 + AOD 2 01 Mar 08:41:51 08:46:00 52° 99° (E) 08:50:11 437.475
AIST 1 01 Mar 08:45:56 08:47:56 12° 293° (WNW) 08:49:44
BRITE-PL 01 Mar 08:54:39 08:59:16 69° 285° (WNW) 09:03:33 437.365/2234.400
POLYITAN 1 01 Mar 08:54:49 08:55:55 11° 64° (ENE) 08:57:15 437.675
POPSAT HIP 1 01 Mar 08:56:08 08:57:19 11° 64° (ENE) 08:58:45 437.405
GONETS M04 01 Mar 09:01:56 09:10:40 72° 79° (E) 09:19:27
CUBEBUG 2 01 Mar 09:07:22 09:10:24 20° 93° (E) 09:13:32 437.445
GOMX 1 01 Mar 09:08:13 09:12:40 74° 284° (WNW) 09:16:51 467.674
UNISAT 6 01 Mar 09:09:34 09:13:19 28° 70° (ENE) 09:17:05 437.425
Oscar 11 01 Mar 09:12:09 09:16:02 32° 96° (E) 09:19:57 145.826/435.025
DELFI C3 01 Mar 09:15:10 09:18:37 27° 95° (E) 09:22:08 145.870
NANOSAT C BR1 01 Mar 09:18:00 09:21:01 19° 67° (ENE) 09:24:08 145.865
ISS 01 Mar 09:19:17 09:22:27 54° 139° (SE) 09:25:37 145.825
AAUSAT CUBESAT 2 01 Mar 09:32:08 09:36:18 68° 285° (WNW) 09:40:28 437.432
COMPASS 1 01 Mar 09:33:24 09:37:32 56° 285° (WNW) 09:41:39 437.405
DX 1 01 Mar 09:33:40 09:37:18 26° 95° (E) 09:40:59 434.975-435.025
TIGRISAT 01 Mar 09:34:54 09:39:12 52° 74° (ENE) 09:43:26 435.000
VELOX 1 01 Mar 09:41:02 09:42:42 12° 89° (E) 09:44:38 145.980
ANTELSAT 01 Mar 09:47:25 09:51:50 74° 76° (ENE) 09:56:11 437.575/2403.000
QB50P1 01 Mar 09:49:14 09:53:15 41° 72° (ENE) 09:57:19 145.935-145.965
DOVE 4 01 Mar 09:51:24 09:55:22 35° 289° (WNW) 09:59:10 437.250
QB50P2 01 Mar 09:52:23 09:56:29 46° 73° (ENE) 10:00:37 145.880/145.840
FUNcube-1 01 Mar 09:53:12 09:57:10 44° 98° (E) 10:01:09 145.935
ZACube-1 01 Mar 09:53:48 09:57:48 45° 99° (E) 10:01:48 437.345
SEEDS 01 Mar 09:58:48 10:02:18 25° 290° (WNW) 10:05:45 437.485
CANX-2 01 Mar 09:59:40 10:02:48 20° 292° (WNW) 10:05:50 2200.000
UKube-1 01 Mar 10:04:56 10:09:13 54° 100° (E) 10:13:28 .
RS-15 01 Mar 10:07:48 10:18:18 41° 251° (WSW) 10:28:57 29.354- 29.394
BUGSAT 1 01 Mar 10:08:14 10:12:21 51° 73° (ENE) 10:16:32 437.445
O/OREOS (USA 219) 01 Mar 10:08:40 10:13:03 46° 297° (WNW) 10:17:30 437.305
DUCHIFAT 1 01 Mar 10:08:48 10:13:04 69° 75° (ENE) 10:17:20 145.980
UWE-3 01 Mar 10:09:04 10:13:15 87° 100° (E) 10:17:25 435.000/436.395/437.385
HUMSAT D 01 Mar 10:10:23 10:14:10 36° 97° (E) 10:17:59 437.325/437.525
CINEMA 3 01 Mar 10:11:41 10:15:37 39° 288° (WNW) 10:19:28 145.822/145.860
SO-50 01 Mar 10:16:18 10:21:01 43° 51° (NE) 10:25:43 436.795
CUTE 1.7 + AOD 2 01 Mar 10:19:15 10:21:33 14° 294° (WNW) 10:23:42 437.475
50 SAT 01 Mar 10:24:48 10:28:27 36° 97° (E) 10:32:08 437.505
HO-68 01 Mar 10:25:50 10:32:00 31° 298° (WNW) 10:38:00 435.675
POLYITAN 1 01 Mar 10:27:03 10:31:21 71° 258° (WSW) 10:35:39 437.675
POPSAT HIP 1 01 Mar 10:28:26 10:32:43 70° 258° (WSW) 10:37:01 437.405
CUBEBUG 2 01 Mar 10:43:30 10:47:14 31° 289° (WNW) 10:50:53 437.445
UNISAT 6 01 Mar 10:46:24 10:50:07 25° 265° (W) 10:53:43 437.425
Oscar 11 01 Mar 10:48:41 10:52:05 22° 292° (WNW) 10:55:22 145.826/435.025
DELFI C3 01 Mar 10:50:28 10:53:46 23° 290° (WNW) 10:57:00 145.870
NANOSAT C BR1 01 Mar 10:52:40 10:56:40 37° 263° (W) 11:00:38 145.865
ISS 01 Mar 10:56:23 10:59:04 23° 337° (NNW) 11:01:43 145.825
DANDE 01 Mar 11:00:06 11:02:38 32° 76° (ENE) 11:05:02 436.750
GONETS M04 01 Mar 11:00:10 11:06:48 24° 278° (W) 11:13:05
AISAT 01 Mar 11:05:00 11:09:28 76° 285° (WNW) 11:13:52 437.250
DX 1 01 Mar 11:09:46 11:13:32 28° 291° (WNW) 11:17:13 434.975-435.025
TIGRISAT 01 Mar 11:13:55 11:16:19 14° 270° (W) 11:18:29 435.000
CUBEBUG 1 01 Mar 11:14:13 11:18:35 57° 100° (E) 11:22:55 437.445
VELOX 1 01 Mar 11:15:22 11:19:46 60° 286° (WNW) 11:24:07 145.980
ESTCUBE 1 01 Mar 11:24:39 11:29:15 82° 103° (ESE) 11:33:48 437.505/2401.250
QB50P1 01 Mar 11:26:33 11:29:23 16° 269° (W) 11:32:04 145.935-145.965
QB50P2 01 Mar 11:30:08 11:32:43 15° 270° (W) 11:35:06 145.880/145.840
FUNcube-1 01 Mar 11:30:43 11:33:13 15° 294° (WNW) 11:35:36 145.935
ZACube-1 01 Mar 11:31:25 11:33:52 15° 294° (WNW) 11:36:09 437.345
CUSAT 1 01 Mar 11:39:25 11:41:44 27° 265° (W) 11:44:01 437.405
UKube-1 01 Mar 11:42:33 11:44:58 14° 296° (WNW) 11:47:12 .
BUGSAT 1 01 Mar 11:45:56 11:48:13 14° 270° (W) 11:50:18 437.445
HUMSAT D 01 Mar 11:46:52 11:49:45 18° 292° (WNW) 11:52:31 437.325/437.525
SPROUT 01 Mar 11:52:55 11:56:55 37° 97° (E) 12:00:54 437.525
SO-50 01 Mar 11:57:21 12:01:23 25° 247° (WSW) 12:05:17 436.795
50 SAT 01 Mar 12:00:37 12:03:14 17° 292° (WNW) 12:05:44 437.505
TISAT 1 01 Mar 12:02:31 12:06:33 42° 98° (E) 12:10:33 437.305
ITAMSAT 1 01 Mar 12:25:23 12:29:07 21° 65° (ENE) 12:33:01 435.822/435.867
Oscar 19 01 Mar 12:28:59 12:34:02 63° 74° (ENE) 12:39:08 437.125/150
SWISSCUBE 01 Mar 12:33:46 12:36:40 16° 90° (E) 12:39:46 437.505
ISS 01 Mar 12:34:59 12:36:23 12° 357° (N) 12:37:46 145.825
BEESAT 01 Mar 12:42:26 12:45:40 18° 91° (E) 12:49:04 436.000
AO-7 01 Mar 12:46:50 12:49:07 12° 45° (NE) 12:51:55 29.400- 29.500
CUBEBUG 1 01 Mar 12:52:09 12:54:32 14° 296° (WNW) 12:56:44 437.445
ESTCUBE 1 01 Mar 13:04:22 13:05:32 11° 298° (WNW) 13:06:27 437.505/2401.250
ITUPSAT 1 01 Mar 13:08:02 13:12:21 33° 96° (E) 13:16:42 437.325
Gurwin Techsat 1B 01 Mar 13:26:35 13:31:45 55° 72° (ENE) 13:36:57 435.225
SPROUT 01 Mar 13:29:40 13:32:47 19° 293° (WNW) 13:35:46 437.525
TISAT 1 01 Mar 13:39:18 13:42:04 17° 294° (WNW) 13:44:41 437.305
ITAMSAT 1 01 Mar 14:03:14 14:08:18 51° 260° (W) 14:13:24 435.822/435.867
SWISSCUBE 01 Mar 14:10:13 14:14:56 52° 287° (WNW) 14:19:35 437.505
Oscar 19 01 Mar 14:10:52 14:13:55 15° 271° (W) 14:16:44 437.125/150
ISS 01 Mar 14:11:31 14:13:48 18° 17° (NNE) 14:16:07 145.825
HORYU 2 01 Mar 14:18:12 14:22:24 44° 72° (ENE) 14:26:39 437.375
BEESAT 01 Mar 14:19:13 14:23:50 46° 288° (WNW) 14:28:23 436.000
AO-7 01 Mar 14:32:15 14:40:12 52° 65° (ENE) 14:48:12 29.400- 29.500
ITUPSAT 1 01 Mar 14:46:06 14:50:10 27° 292° (WNW) 14:54:07 437.325
KKS-1 01 Mar 14:53:53 14:58:21 85° 103° (ESE) 15:02:47 437.445
STARS 01 Mar 15:03:38 15:08:01 70° 102° (ESE) 15:12:22 437.465
Gurwin Techsat 1B 01 Mar 15:08:26 15:12:09 18° 270° (W) 15:15:41 435.225
JAS-2 01 Mar 15:19:49 15:25:04 52° 71° (ENE) 15:30:56 435.910
ISS 01 Mar 15:47:24 15:50:39 80° 35° (NE) 15:53:54 145.825
CUTE-I 01 Mar 15:53:16 15:54:38 11° 59° (ENE) 15:56:18 437.470
YUBILEINY 01 Mar 15:53:46 16:02:13 59° 92° (E) 16:10:48 435.215
MOZHAYETS 4 01 Mar 15:55:51 15:59:08 19° 92° (E) 16:02:32
HORYU 2 01 Mar 15:56:28 15:59:22 16° 269° (W) 16:02:05 437.375
M-CUBED/EXP-1 PRIME 01 Mar 16:03:40 16:07:24 29° 102° (ESE) 16:11:24 437.505
AUBIESAT-1 01 Mar 16:06:52 16:10:34 29° 102° (ESE) 16:14:32 437.475
BEESAT 3 01 Mar 16:20:25 16:22:10 13° 110° (ESE) 16:24:08 437.485
AO-7 01 Mar 16:25:42 16:33:17 36° 264° (W) 16:40:42 29.400- 29.500
STARS 01 Mar 16:42:19 16:43:59 12° 297° (WNW) 16:45:25 437.465
BEESAT 2 01 Mar 16:43:06 16:46:03 20° 112° (ESE) 16:49:09 435.950
VERMONT LUNAR 01 Mar 16:46:10 16:47:31 12° 146° (SSE) 16:48:57 437.305
JAS-2 01 Mar 17:06:43 17:10:46 20° 272° (W) 17:14:54 435.910
AIST 1 01 Mar 17:14:27 17:16:49 15° 68° (ENE) 17:19:22
Cubesat XI-IV 01 Mar 17:19:15 17:24:34 67° 74° (ENE) 17:29:56 437.490
ISS 01 Mar 17:25:48 17:26:41 11° 230° (SW) 17:27:26 145.825
